STARLINK-34841

Last updated on Sat Sep 13 2025 00:02:06 GMT+0000 (Coordinated Universal Time)

1 65208U 25176L 25255.58335648 .00022072 00000+0 56033-3 0 9995 2 65208 53.1606 263.9012 0001017 68.6648 47.7237 15.39611918 5878
UTC large
Height (km)
Speed (km/s)
/
Latitude / Longitude
Inclination (degrees)
Orbital Period (minutes)
Azimuth
Elevation
Range (km)
Doppler Factor

Next 0 passes for location: London (51.5072 / 0.1276)

Sorry there are no passes over London.